Change the Weather History Date:

Wednesday, February 13, 2013

  Actual Average Record
Temperature  
Mean Temperature 54 °F -  
Max Temperature 62 °F 62 °F 75 °F (2000)
Min Temperature 45 °F 40 °F 24 °F (2012)
Degree Days  
Heating Degree Days 11    
Growing Degree Days 4 (Base 50)    
Moisture  
Dew Point 53 °F    
Average Humidity 92    
Maximum Humidity 100    
Minimum Humidity 64    
Precipitation  
Precipitation 0.03 in - - ()
Sea Level Pressure  
Sea Level Pressure 29.85 in    
Wind  
Wind Speed 5 mph (WNW)    
Max Wind Speed 14 mph    
Max Gust Speed 22 mph    
Visibility 7 miles    
Events Fog , Rain    
Averages and records for this station are not official NWS values.
T = Trace of Precipitation, MM = Missing Value Source: NWS Daily Summary

Daily Weather History Graph

Daily Weather History Graph

Search for Another Location

Airport or City:

Trip Planner

Search our weather history database for the weather conditions in past years. The results will help you decide how hot, cold, wet, or windy it might be!

Date:

Astronomy

Feb. 13, 2013 Rise Set
Actual Time 6:25 AM CST 5:28 PM CST
Civil Twilight 6:00 AM CST 5:53 PM CST
Nautical Twilight 5:32 AM CST 6:22 PM CST
Astronomical Twilight 5:04 AM CST 6:50 PM CST
Moon 8:12 AM CST (2/13) 9:10 PM CST (2/13)
Length of Visible Light 11h 52m
Length of Day
11h 02m
Waxing Crescent, 14% of the Moon is Illuminated
Feb 13
Waxing Crescent
Feb 17
First Quarter
Feb 25
Full
Mar 4
Last Quarter
Mar 11
New

Hourly Weather History & Observations

Time (CST) Temp. Windchill Dew Point Humidity Pressure Visibility Wind Dir Wind Speed Gust Speed Precip Events Conditions
12:58 AM 58.3 °F - 57.7 °F 98% 29.81 in 9.0 mi NW 3.5 mph - N/A   Overcast
1:03 AM 57.2 °F - 57.2 °F 100% 29.79 in 8.0 mi NW 2.3 mph - N/A   Overcast
1:08 AM 57.2 °F - 57.2 °F 100% 29.79 in 8.0 mi Calm Calm - N/A   Overcast
1:58 AM 57.4 °F - 56.8 °F 98% 29.77 in 1.5 mi East 2.3 mph - N/A   Scattered Clouds
2:03 AM 57.2 °F - 57.2 °F 100% 29.77 in 1.2 mi SE 4.6 mph - N/A   Scattered Clouds
2:08 AM 57.2 °F - 57.2 °F 100% 29.77 in 1.2 mi SE 4.6 mph - N/A   Mostly Cloudy
2:13 AM 57.2 °F - 57.2 °F 100% 29.76 in 1.0 mi ESE 2.3 mph - N/A   Mist
2:18 AM 57.2 °F - 57.2 °F 100% 29.76 in 0.8 mi East 2.3 mph - N/A   Mist
2:23 AM 57.2 °F - 57.2 °F 100% 29.76 in 0.8 mi Calm Calm - N/A   Mist
2:28 AM 57.2 °F - 57.2 °F 100% 29.76 in 0.5 mi Calm Calm - N/A Fog Fog
2:43 AM 57.2 °F - 57.2 °F 100% 29.77 in 0.5 mi Calm Calm - N/A Fog Fog
2:58 AM 57.2 °F - 57.2 °F 100% 29.78 in 0.5 mi NW 3.5 mph - N/A Fog Fog
3:03 AM 57.2 °F - 57.2 °F 100% 29.77 in 0.5 mi NNW 2.3 mph - N/A Fog Fog
3:08 AM 57.2 °F - 57.2 °F 100% 29.77 in 0.8 mi NW 1.2 mph - N/A   Mist
3:13 AM 57.2 °F - 57.2 °F 100% 29.77 in 1.0 mi Calm Calm - N/A   Mist
3:18 AM 57.2 °F - 57.2 °F 100% 29.77 in 1.2 mi Calm Calm - N/A   Partly Cloudy
3:23 AM 57.2 °F - 57.2 °F 100% 29.77 in 1.5 mi Calm Calm - N/A   Partly Cloudy
3:38 AM 57.2 °F - 57.2 °F 100% 29.77 in 2.5 mi WNW 2.3 mph - N/A   Partly Cloudy
3:58 AM 56.7 °F - 56.3 °F 99% 29.79 in 3.0 mi SW 2.3 mph - N/A   Clear
4:56 AM 60.8 °F - 59.0 °F 94% 29.81 in 6.0 mi WNW 9.2 mph - N/A   Scattered Clouds
4:58 AM 60.8 °F - 59.0 °F 94% 29.82 in 6.0 mi WNW 8.1 mph - N/A   Scattered Clouds
5:03 AM 60.8 °F - 60.8 °F 100% 29.80 in 6.0 mi West 11.5 mph - N/A   Mostly Cloudy
5:08 AM 60.8 °F - 60.8 °F 100% 29.81 in 6.0 mi West 12.7 mph 20.7 mph N/A   Mostly Cloudy
5:13 AM 62.6 °F - 60.8 °F 94% 29.81 in 6.0 mi West 12.7 mph 21.9 mph N/A   Mostly Cloudy
5:33 AM 60.8 °F - 60.8 °F 100% 29.82 in 8.0 mi West 11.5 mph - N/A   Overcast
5:48 AM 60.8 °F - 60.8 °F 100% 29.83 in 9.0 mi West 13.8 mph - N/A   Mostly Cloudy
5:58 AM 60.3 °F - 59.7 °F 98% 29.84 in 10.0 mi West 9.2 mph - N/A   Mostly Cloudy
6:08 AM 59.0 °F - 59.0 °F 100% 29.84 in 10.0 mi West 8.1 mph - N/A   Scattered Clouds
6:58 AM 57.9 °F - 56.3 °F 94% 29.87 in 10.0 mi West 8.1 mph - N/A   Clear
7:58 AM 59.5 °F - 54.5 °F 83% 29.88 in 10.0 mi West 9.2 mph - N/A   Clear
8:58 AM 59.5 °F - 50.5 °F 72% 29.90 in 10.0 mi West 12.7 mph 19.6 mph N/A   Scattered Clouds
9:58 AM 60.1 °F - 49.8 °F 69% 29.89 in 10.0 mi West 8.1 mph - N/A   Partly Cloudy
10:58 AM 60.6 °F - 48.4 °F 64% 29.91 in 10.0 mi West 12.7 mph - N/A   Partly Cloudy
11:58 AM 58.3 °F - 48.6 °F 70% 29.92 in 10.0 mi West 9.2 mph - N/A   Scattered Clouds
12:58 PM 57.4 °F - 45.7 °F 65% 29.90 in 10.0 mi West 11.5 mph - N/A   Mostly Cloudy
1:17 PM 57.2 °F - 46.4 °F 67% 29.89 in 10.0 mi West 10.4 mph - N/A Rain Light Rain
1:37 PM 55.4 °F - 46.4 °F 72% 29.87 in 10.0 mi WNW 11.5 mph - N/A   Mostly Cloudy
1:58 PM 54.0 °F - 47.3 °F 78% 29.90 in 10.0 mi West 8.1 mph - 0.00 in   Overcast
2:28 PM 53.6 °F - 48.2 °F 82% 29.91 in 10.0 mi West 8.1 mph - N/A Rain Light Rain
2:58 PM 52.0 °F - 48.2 °F 87% 29.89 in 10.0 mi West 5.8 mph - 0.00 in Rain Light Rain
3:31 PM 51.8 °F - 48.2 °F 88% 29.88 in 10.0 mi WNW 6.9 mph - N/A Rain Light Rain
3:33 PM 51.8 °F - 48.2 °F 88% 29.88 in 10.0 mi WNW 5.8 mph - N/A Rain Light Rain
3:58 PM 50.4 °F - 48.4 °F 93% 29.93 in 9.0 mi WNW 10.4 mph - 0.02 in Rain Light Rain
4:30 PM 48.2 °F - 46.4 °F 93% 29.92 in 8.0 mi NW 5.8 mph - N/A Rain Rain
4:55 PM 48.2 °F - 44.6 °F 87% 29.93 in 7.0 mi NW 9.2 mph - N/A Rain Light Rain
5:16 PM 48.2 °F - 46.4 °F 93% 29.95 in 10.0 mi NW 6.9 mph - N/A Rain Light Rain
5:18 PM 48.2 °F - 46.4 °F 93% 29.93 in 10.0 mi NNW 4.6 mph - N/A   Mostly Cloudy
5:23 PM 48.2 °F - 44.6 °F 87% 29.93 in 10.0 mi NW 6.9 mph - N/A   Scattered Clouds
5:58 PM 47.5 °F - 45.3 °F 92% 29.96 in 10.0 mi NW 6.9 mph - 0.01 in   Clear
6:58 PM 47.3 °F - 45.0 °F 92% 29.98 in 10.0 mi WNW 1.2 mph - N/A   Clear
7:58 PM 46.9 °F - 44.8 °F 92% 29.99 in 10.0 mi WNW 4.6 mph - N/A   Clear
8:58 PM 46.6 °F - 44.4 °F 92% 30.00 in 10.0 mi NW 2.3 mph - N/A   Partly Cloudy
9:58 PM 46.0 °F 43.9 °F 44.1 °F 93% 30.03 in 10.0 mi West 4.6 mph - N/A   Partly Cloudy
11:58 PM 45.1 °F 42.8 °F 42.6 °F 91% 30.04 in 10.0 mi WNW 4.6 mph - N/A   Clear